Year,Month,Day,Hour,Minute,Value (Times are PST for temperature in C)
2015,11,17,00,00,8.60
2015,11,17,00,01,8.60
2015,11,17,00,02,8.60
2015,11,17,00,03,8.60
2015,11,17,00,04,8.60
2015,11,17,00,05,8.60
2015,11,17,00,06,8.60
2015,11,17,00,07,8.60
2015,11,17,00,08,8.60
2015,11,17,00,09,8.70
2015,11,17,00,10,8.60
2015,11,17,00,11,8.60
2015,11,17,00,12,8.70
2015,11,17,00,13,8.70
2015,11,17,00,14,8.70
2015,11,17,00,15,8.70
2015,11,17,00,16,8.70
2015,11,17,00,17,8.70
2015,11,17,00,18,8.70
2015,11,17,00,19,8.70
2015,11,17,00,20,8.80
2015,11,17,00,21,8.80
2015,11,17,00,22,8.80
2015,11,17,00,23,8.90
2015,11,17,00,24,8.90
2015,11,17,00,25,8.90
2015,11,17,00,26,8.90
2015,11,17,00,27,9.00
2015,11,17,00,28,9.10
2015,11,17,00,29,9.10
2015,11,17,00,30,9.10
2015,11,17,00,31,9.20
2015,11,17,00,32,9.20
2015,11,17,00,33,9.20
2015,11,17,00,34,9.20
2015,11,17,00,35,9.20
2015,11,17,00,36,9.30
2015,11,17,00,37,9.30
2015,11,17,00,38,9.30
2015,11,17,00,39,9.30
2015,11,17,00,40,9.30
2015,11,17,00,41,9.40
2015,11,17,00,42,9.40
2015,11,17,00,43,9.40
2015,11,17,00,44,9.50
2015,11,17,00,45,9.50
2015,11,17,00,46,9.50
2015,11,17,00,47,9.50
2015,11,17,00,48,9.60
2015,11,17,00,49,9.60
2015,11,17,00,50,9.60
2015,11,17,00,51,9.70
2015,11,17,00,52,9.70
2015,11,17,00,53,9.70
2015,11,17,00,54,9.70
2015,11,17,00,55,9.70
2015,11,17,00,56,9.70
2015,11,17,00,57,9.80
2015,11,17,00,58,9.90
2015,11,17,00,59,9.90
2015,11,17,01,00,9.90
2015,11,17,01,01,9.90
2015,11,17,01,02,9.90
2015,11,17,01,03,9.90
2015,11,17,01,04,9.90
2015,11,17,01,05,9.90
2015,11,17,01,06,9.90
2015,11,17,01,07,9.90
2015,11,17,01,08,9.90
2015,11,17,01,09,9.90
2015,11,17,01,10,9.90
2015,11,17,01,11,9.90
2015,11,17,01,12,9.90
2015,11,17,01,13,9.90
2015,11,17,01,14,9.90
2015,11,17,01,15,9.90
2015,11,17,01,16,9.90
2015,11,17,01,17,9.90
2015,11,17,01,18,9.90
2015,11,17,01,19,9.90
2015,11,17,01,20,9.90
2015,11,17,01,21,9.90
2015,11,17,01,22,9.90
2015,11,17,01,23,9.90
2015,11,17,01,24,9.90
2015,11,17,01,25,9.90
2015,11,17,01,26,9.90
2015,11,17,01,27,9.90
2015,11,17,01,28,9.90
2015,11,17,01,29,9.90
2015,11,17,01,30,9.90
2015,11,17,01,31,9.80
2015,11,17,01,32,9.80
2015,11,17,01,33,9.80
2015,11,17,01,34,9.70
2015,11,17,01,35,9.70
2015,11,17,01,36,9.70
2015,11,17,01,37,9.70
2015,11,17,01,38,9.70
2015,11,17,01,39,9.70
2015,11,17,01,40,9.70
2015,11,17,01,41,9.70
2015,11,17,01,42,9.70
2015,11,17,01,43,9.70
2015,11,17,01,44,9.70
2015,11,17,01,45,9.70
2015,11,17,01,46,9.60
2015,11,17,01,47,9.60
2015,11,17,01,48,9.60
2015,11,17,01,49,9.60
2015,11,17,01,50,9.60
2015,11,17,01,51,9.60
2015,11,17,01,52,9.60
2015,11,17,01,53,9.60
2015,11,17,01,54,9.50
2015,11,17,01,55,9.50
2015,11,17,01,56,9.50
2015,11,17,01,57,9.50
2015,11,17,01,58,9.50
2015,11,17,01,59,9.50
2015,11,17,02,00,9.50
2015,11,17,02,01,9.50
2015,11,17,02,02,9.40
2015,11,17,02,03,9.40
2015,11,17,02,04,9.40
2015,11,17,02,05,9.40
2015,11,17,02,06,9.40
2015,11,17,02,07,9.40
2015,11,17,02,08,9.40
2015,11,17,02,09,9.40
2015,11,17,02,10,9.40
2015,11,17,02,11,9.30
2015,11,17,02,12,9.30
2015,11,17,02,13,9.30
2015,11,17,02,14,9.30
2015,11,17,02,15,9.30
2015,11,17,02,16,9.30
2015,11,17,02,17,9.30
2015,11,17,02,18,9.20
2015,11,17,02,19,9.20
2015,11,17,02,20,9.20
2015,11,17,02,21,9.20
2015,11,17,02,22,9.20
2015,11,17,02,23,9.20
2015,11,17,02,24,9.20
2015,11,17,02,25,9.20
2015,11,17,02,26,9.20
2015,11,17,02,27,9.20
2015,11,17,02,28,9.20
2015,11,17,02,29,9.20
2015,11,17,02,30,9.20
2015,11,17,02,31,9.20
2015,11,17,02,32,9.10
2015,11,17,02,33,9.10
2015,11,17,02,34,9.00
2015,11,17,02,35,9.00
2015,11,17,02,36,9.00
2015,11,17,02,37,9.00
2015,11,17,02,38,8.90
2015,11,17,02,39,8.90
2015,11,17,02,40,8.90
2015,11,17,02,41,8.90
2015,11,17,02,42,8.80
2015,11,17,02,43,8.80
2015,11,17,02,44,8.80
2015,11,17,02,45,8.80
2015,11,17,02,46,8.70
2015,11,17,02,47,8.70
2015,11,17,02,48,8.70
2015,11,17,02,49,8.70
2015,11,17,02,50,8.70
2015,11,17,02,51,8.60
2015,11,17,02,52,8.60
2015,11,17,02,53,8.50
2015,11,17,02,54,8.50
2015,11,17,02,55,8.50
2015,11,17,02,56,8.50
2015,11,17,02,57,8.40
2015,11,17,02,58,8.40
2015,11,17,02,59,8.40
2015,11,17,03,00,8.40
2015,11,17,03,01,8.40
2015,11,17,03,02,8.40
2015,11,17,03,03,8.30
2015,11,17,03,04,8.30
2015,11,17,03,05,8.30
2015,11,17,03,06,8.30
2015,11,17,03,07,8.30
2015,11,17,03,08,8.30
2015,11,17,03,09,8.30
2015,11,17,03,10,8.20
2015,11,17,03,11,8.20
2015,11,17,03,12,8.20
2015,11,17,03,13,8.20
2015,11,17,03,14,8.20
2015,11,17,03,15,8.20
2015,11,17,03,16,8.20
2015,11,17,03,17,8.10
2015,11,17,03,18,8.10
2015,11,17,03,19,8.10
2015,11,17,03,20,8.10
2015,11,17,03,21,8.10
2015,11,17,03,22,8.10
2015,11,17,03,23,8.10
2015,11,17,03,24,8.10
2015,11,17,03,25,8.00
2015,11,17,03,26,8.00
2015,11,17,03,27,8.00
2015,11,17,03,28,8.10
2015,11,17,03,29,8.10
2015,11,17,03,30,8.10
2015,11,17,03,31,8.10
2015,11,17,03,32,8.10
2015,11,17,03,33,8.10
2015,11,17,03,34,8.10
2015,11,17,03,35,8.10
2015,11,17,03,36,8.10
2015,11,17,03,37,8.10
2015,11,17,03,38,8.10
2015,11,17,03,39,8.20
2015,11,17,03,40,8.20
2015,11,17,03,41,8.20
2015,11,17,03,42,8.20
2015,11,17,03,43,8.20
2015,11,17,03,44,8.20
2015,11,17,03,45,8.20
2015,11,17,03,46,8.20
2015,11,17,03,47,8.20
2015,11,17,03,48,8.20
2015,11,17,03,49,8.20
2015,11,17,03,50,8.20
2015,11,17,03,51,8.20
2015,11,17,03,52,8.20
2015,11,17,03,53,8.20
2015,11,17,03,54,8.20
2015,11,17,03,55,8.20
2015,11,17,03,56,8.30
2015,11,17,03,57,8.30
2015,11,17,03,58,8.30
2015,11,17,03,59,8.20
2015,11,17,04,00,8.20
2015,11,17,04,01,8.20
2015,11,17,04,02,8.20
2015,11,17,04,03,8.20
2015,11,17,04,04,8.20
2015,11,17,04,05,8.20
2015,11,17,04,06,8.20
2015,11,17,04,07,8.20
2015,11,17,04,08,8.20
2015,11,17,04,09,8.20
2015,11,17,04,10,8.20
2015,11,17,04,11,8.10
2015,11,17,04,12,8.10
2015,11,17,04,13,8.10
2015,11,17,04,14,8.10
2015,11,17,04,15,8.00
2015,11,17,04,16,8.00
2015,11,17,04,17,8.00
2015,11,17,04,18,8.00
2015,11,17,04,19,8.00
2015,11,17,04,20,8.00
2015,11,17,04,21,7.90
2015,11,17,04,22,7.90
2015,11,17,04,23,7.90
2015,11,17,04,24,7.90
2015,11,17,04,25,7.90
2015,11,17,04,26,7.90
2015,11,17,04,27,7.90
2015,11,17,04,28,7.90
2015,11,17,04,29,7.90
2015,11,17,04,30,7.90
2015,11,17,04,31,7.90
2015,11,17,04,32,7.90
2015,11,17,04,33,7.90
2015,11,17,04,34,7.90
2015,11,17,04,35,7.90
2015,11,17,04,36,7.90
2015,11,17,04,37,7.90
2015,11,17,04,38,8.00
2015,11,17,04,39,8.00
2015,11,17,04,40,8.00
2015,11,17,04,41,8.00
2015,11,17,04,42,8.00
2015,11,17,04,43,8.00
2015,11,17,04,44,8.00
2015,11,17,04,45,8.00
2015,11,17,04,46,8.00
2015,11,17,04,47,8.00
2015,11,17,04,48,8.10
2015,11,17,04,49,8.10
2015,11,17,04,50,8.10
2015,11,17,04,51,8.10
2015,11,17,04,52,8.10
2015,11,17,04,53,8.10
2015,11,17,04,54,8.10
2015,11,17,04,55,8.20
2015,11,17,04,56,8.20
2015,11,17,04,57,8.20
2015,11,17,04,58,8.20
2015,11,17,04,59,8.20
2015,11,17,05,00,8.20
2015,11,17,05,01,8.20
2015,11,17,05,02,8.20
2015,11,17,05,03,8.20
2015,11,17,05,04,8.30
2015,11,17,05,05,8.30
2015,11,17,05,06,8.30
2015,11,17,05,07,8.30
2015,11,17,05,08,8.30
2015,11,17,05,09,8.30
2015,11,17,05,10,8.40
2015,11,17,05,11,8.40
2015,11,17,05,12,8.40
2015,11,17,05,13,8.40
2015,11,17,05,14,8.40
2015,11,17,05,15,8.40
2015,11,17,05,16,8.40
2015,11,17,05,17,8.40
2015,11,17,05,18,8.40
2015,11,17,05,19,8.40
2015,11,17,05,20,8.40
2015,11,17,05,21,8.50
2015,11,17,05,22,8.50
2015,11,17,05,23,8.50
2015,11,17,05,24,8.50
2015,11,17,05,25,8.50
2015,11,17,05,26,8.60
2015,11,17,05,27,8.60
2015,11,17,05,28,8.60
2015,11,17,05,29,8.70
2015,11,17,05,30,8.70
2015,11,17,05,31,8.70
2015,11,17,05,32,8.70
2015,11,17,05,33,8.70
2015,11,17,05,34,8.80
2015,11,17,05,35,8.80
2015,11,17,05,36,8.90
2015,11,17,05,37,8.90
2015,11,17,05,38,8.90
2015,11,17,05,39,9.00
2015,11,17,05,40,9.00
2015,11,17,05,41,9.00
2015,11,17,05,42,9.00
2015,11,17,05,43,9.10
2015,11,17,05,44,9.20
2015,11,17,05,45,9.20
2015,11,17,05,46,9.20
2015,11,17,05,47,9.20
2015,11,17,05,48,9.30
2015,11,17,05,49,9.40
2015,11,17,05,50,9.50
2015,11,17,05,51,9.60
2015,11,17,05,52,9.60
2015,11,17,05,53,9.70
2015,11,17,05,54,9.70
2015,11,17,05,55,9.80
2015,11,17,05,56,9.90
2015,11,17,05,57,9.90
2015,11,17,05,58,10.00
2015,11,17,05,59,10.10
2015,11,17,06,00,10.10
2015,11,17,06,01,10.20
2015,11,17,06,02,10.40
2015,11,17,06,03,10.60
2015,11,17,06,04,10.90
2015,11,17,06,05,11.30
2015,11,17,06,06,11.60
2015,11,17,06,07,11.90
2015,11,17,06,08,12.20
2015,11,17,06,09,12.30
2015,11,17,06,10,12.40
2015,11,17,06,11,12.50
2015,11,17,06,12,12.50
2015,11,17,06,13,12.60
2015,11,17,06,14,12.60
2015,11,17,06,15,12.60
2015,11,17,06,16,12.70
2015,11,17,06,17,12.70
2015,11,17,06,18,12.70
2015,11,17,06,19,12.80
2015,11,17,06,20,12.80
2015,11,17,06,21,12.80
2015,11,17,06,22,12.80
2015,11,17,06,23,12.80
2015,11,17,06,24,12.80
2015,11,17,06,25,12.80
2015,11,17,06,26,12.90
2015,11,17,06,27,12.90
2015,11,17,06,28,12.90
2015,11,17,06,29,12.90
2015,11,17,06,30,12.90
2015,11,17,06,31,12.90
2015,11,17,06,32,12.90
2015,11,17,06,33,12.90
2015,11,17,06,34,12.90
2015,11,17,06,35,12.90
2015,11,17,06,36,12.90
2015,11,17,06,37,12.80
2015,11,17,06,38,12.80
2015,11,17,06,39,12.80
2015,11,17,06,40,12.80
2015,11,17,06,41,12.80
2015,11,17,06,42,12.80
2015,11,17,06,43,12.80
2015,11,17,06,44,12.80
2015,11,17,06,45,12.80
2015,11,17,06,46,12.80
2015,11,17,06,47,12.80
2015,11,17,06,48,12.80
2015,11,17,06,49,12.80
2015,11,17,06,50,12.80
2015,11,17,06,51,12.80
2015,11,17,06,52,12.80
2015,11,17,06,53,12.80
2015,11,17,06,54,12.80
2015,11,17,06,55,12.80
2015,11,17,06,56,12.80
2015,11,17,06,57,12.80
2015,11,17,06,58,12.80
2015,11,17,06,59,12.80
2015,11,17,07,00,12.80
2015,11,17,07,01,12.80
2015,11,17,07,02,12.80
2015,11,17,07,03,12.80
2015,11,17,07,04,12.70
2015,11,17,07,05,12.70
2015,11,17,07,06,12.70
2015,11,17,07,07,12.70
2015,11,17,07,08,12.70
2015,11,17,07,09,12.70
2015,11,17,07,10,12.70
2015,11,17,07,11,12.70
2015,11,17,07,12,12.70
2015,11,17,07,13,12.70
2015,11,17,07,14,12.70
2015,11,17,07,15,12.70
2015,11,17,07,16,12.70
2015,11,17,07,17,12.70
2015,11,17,07,18,12.70
2015,11,17,09,33,13.40
2015,11,17,09,34,13.50
2015,11,17,09,35,13.50
2015,11,17,09,36,13.50
2015,11,17,09,37,13.50
2015,11,17,09,38,13.50
2015,11,17,09,39,13.50
2015,11,17,09,40,13.50
2015,11,17,09,41,13.50
2015,11,17,09,42,13.50
2015,11,17,09,43,13.50
2015,11,17,09,44,13.50
2015,11,17,09,45,13.50
2015,11,17,09,46,13.50
2015,11,17,09,47,13.60
2015,11,17,09,48,13.60
2015,11,17,09,49,13.60
2015,11,17,09,50,13.60
2015,11,17,09,51,13.60
2015,11,17,09,52,13.60
2015,11,17,09,53,13.70
2015,11,17,09,54,13.60
2015,11,17,09,55,13.60
2015,11,17,09,56,13.60
2015,11,17,09,57,13.60
2015,11,17,09,58,13.60
2015,11,17,09,59,13.60
2015,11,17,10,00,13.60
2015,11,17,10,01,13.60
2015,11,17,10,02,13.60
2015,11,17,10,03,13.70
2015,11,17,10,04,13.70
2015,11,17,10,05,13.70
2015,11,17,10,06,13.60
2015,11,17,10,07,13.60
2015,11,17,10,08,13.70
2015,11,17,10,09,13.70
2015,11,17,10,10,13.70
2015,11,17,10,11,13.70
2015,11,17,10,12,13.70
2015,11,17,10,13,13.70
2015,11,17,10,14,13.70
2015,11,17,10,15,13.70
2015,11,17,10,16,13.70
2015,11,17,10,17,13.70
2015,11,17,10,18,13.70
2015,11,17,10,19,13.70
2015,11,17,10,20,13.70
2015,11,17,10,21,13.70
2015,11,17,10,22,13.70
2015,11,17,10,23,13.70
2015,11,17,10,24,13.70
2015,11,17,10,25,13.70
2015,11,17,10,26,13.70
2015,11,17,10,27,13.70
